San Jose, Costa Rica

12:35 PM CST on December 17, 2017 (GMT -0600)
Juan Santamaria International

Weather History for MROC - February, 2014

Change the Weather History Date:

Wednesday, February 26, 2014

  Actual Average Record
Temperature  
Mean Temperature 76 °F -  
Max Temperature 88 °F 83 °F 89 °F (2003)
Min Temperature 65 °F 64 °F 60 °F (2004)
Cooling Degree Days 12    
Growing Degree Days 26 (Base 50)    
Moisture  
Dew Point 56 °F    
Average Humidity 53    
Maximum Humidity 73    
Minimum Humidity 22    
Precipitation  
Precipitation 0.00 in 0.02 in - ()
Sea Level Pressure  
Sea Level Pressure 29.93 in    
Wind  
Wind Speed 8 mph ()    
Max Wind Speed 13 mph    
Max Gust Speed 23 mph    
Visibility 8.9 miles    
Events      
Averages and records for this station are not official NWS values.
T = Trace of Precipitation, MM = Missing Value Source: Averaged Metar Reports

Daily Weather History Graph

Daily Weather History Graph

Search for Another Location

Airport or City:

Trip Planner

Search our weather history database for the weather conditions in past years. The results will help you decide how hot, cold, wet, or windy it might be!

Date:

Astronomy

Feb. 26, 2014 Rise Set
Actual Time 5:52 AM CST 5:47 PM CST
Civil Twilight 5:31 AM CST 6:08 PM CST
Nautical Twilight 5:06 AM CST 6:32 PM CST
Astronomical Twilight 4:42 AM CST 6:57 PM CST
Moon 3:14 AM CST (2/26) 3:20 PM CST (2/26)
Length of Visible Light 12h 37m
Length of Day
11h 54m
Waning Crescent, 10% of the Moon is Illuminated
Feb 26
Waning Crescent
Mar 1
New
Mar 8
First Quarter
Mar 16
Full
Mar 23
Last Quarter

Hourly Weather History & Observations

Time (CST) Temp. Heat Index Dew Point Humidity Pressure Visibility Wind Dir Wind Speed Gust Speed Precip Events Conditions
12:00 AM 68 °F - 55 °F 53% 29.85 in 12 mi East 9.2 mph - -  
12:00 AM 68.0 °F - 55.4 °F 64% 30.00 in - East 9.2 mph - N/A   Clear
1:00 AM 68.0 °F - 53.6 °F 60% 29.98 in - ESE 10.4 mph - N/A   Clear
2:00 AM 68.0 °F - 55.4 °F 64% 29.95 in - East 10.4 mph 23.0 mph N/A   Clear
3:00 AM 68 °F - 55 °F 54% 29.81 in 12 mi East 10.4 mph - -   Partly Cloudy
3:00 AM 68.0 °F - 55.4 °F 64% 29.96 in - East 10.4 mph 23.0 mph N/A   Clear
4:00 AM 68.0 °F - 53.6 °F 60% 29.95 in - East 10.4 mph 21.9 mph N/A   Clear
5:00 AM 66.2 °F - 53.6 °F 64% 29.97 in - ENE 8.1 mph - N/A   Clear
6:00 AM 66 °F - 53 °F 54% 29.86 in 12 mi ENE 9.2 mph - -  
6:00 AM 66.2 °F - 53.6 °F 64% 29.98 in - ENE 9.2 mph - N/A   Clear
7:00 AM 68.0 °F - 53.6 °F 60% 29.99 in - ENE 11.5 mph - N/A   Clear
8:00 AM 73.4 °F - 53.6 °F 50% 30.00 in - East 9.2 mph - N/A   Clear
9:00 AM 77 °F - 54 °F 35% 29.88 in 12 mi East 11.5 mph - -  
9:00 AM 77.0 °F - 53.6 °F 44% 30.01 in - East 11.5 mph - N/A   Clear
10:00 AM 82.4 °F 81.4 °F 53.6 °F 37% 30.01 in - East 6.9 mph - N/A   Clear
11:00 AM 84.2 °F 82.8 °F 53.6 °F 35% 29.99 in - WNW 6.9 mph - N/A   Clear
12:00 PM 87 °F - 54 °F 22% 29.78 in 12 mi West 9.2 mph - -   Partly Cloudy
12:00 PM 86.0 °F 84.2 °F 53.6 °F 33% 29.95 in - West 9.2 mph - N/A   Clear
1:00 PM 86.0 °F 84.5 °F 55.4 °F 35% 29.93 in - SW 11.5 mph - N/A   Clear
2:00 PM 86.0 °F 84.9 °F 57.2 °F 37% 29.90 in 6.2 mi WSW 12.7 mph - N/A   Scattered Clouds
3:00 PM 85 °F - 59 °F 31% 29.72 in 12 mi WSW 12.7 mph - -   Partly Cloudy
3:00 PM 86.0 °F 85.4 °F 59.0 °F 40% 29.88 in 6.2 mi WSW 12.7 mph - N/A   Scattered Clouds
4:00 PM 80.6 °F 81.5 °F 60.8 °F 51% 29.88 in 6.2 mi West 11.5 mph - N/A   Mostly Cloudy
5:00 PM 78.8 °F - 60.8 °F 54% 29.90 in - WSW 9.2 mph - N/A   Mostly Cloudy
6:00 PM 74 °F - 59 °F 50% 29.81 in 12 mi South 4.6 mph - -   Mostly Cloudy
6:00 PM 73.4 °F - 59.0 °F 61% 29.93 in 6.2 mi South 4.6 mph - N/A   Mostly Cloudy
7:00 PM 71.6 °F - 59.0 °F 64% 29.95 in 6.2 mi East 3.5 mph - N/A   Mostly Cloudy
8:00 PM 71.6 °F - 59.0 °F 64% 29.97 in 6.2 mi East 4.6 mph - N/A   Mostly Cloudy
9:00 PM 69 °F - 59 °F 62% 29.84 in 12 mi East 8.1 mph - -   Scattered Clouds
9:00 PM 68.0 °F - 59.0 °F 73% 29.99 in 6.2 mi East 8.1 mph - N/A   Partly Cloudy
10:00 PM 68.0 °F - 59.0 °F 73% 30.00 in 6.2 mi East 8.1 mph - N/A   Partly Cloudy
11:00 PM 68.0 °F - 59.0 °F 73% 30.00 in 6.2 mi ENE 6.9 mph - N/A   Partly Cloudy